#timestamp,LO_Frequency,Hit,StdDev 
1542664815.3,286046995.0,N
1542664835.2,286046996.9,N
1542664855.9,286046996.9,N
1542664875.7,286046999.5,N
1542664895.6,286046999.5,N
1542664915.4,286046996.6,N
1542664935.2,286046996.7,N
1542664955.1,286046994.9,Y
1542664986.0,286046998.6,E
1542664995.0,286046998.9,N
1542665026.0,286046998.5,E
1542665035.0,286046998.2,N
1542665035.9,286046998.2,P
1542665055.7,286047000.7,P
1542665075.6,286047000.5,N
1542665095.4,286047000.3,N
1542665115.3,286047001.0,N
1542665135.1,286046998.3,N
1542665136.0,286046998.3,N
1542665155.8,286046998.7,N
1542665175.7,286046999.3,N
1542665195.5,286046998.2,N
1542665215.3,286046998.7,N
1542665235.2,286047001.2,N
1542665255.0,286047001.0,N
1542665255.9,286047001.0,N
1542665305.8,286047000.9,E
1542665315.7,286047001.1,N
1542665335.6,286046998.7,P
1542665355.4,286047000.7,N
1542665375.2,286046999.4,N
1542665395.1,286046999.5,N
1542665396.0,286046999.5,N
1542665415.8,286046999.2,N
1542665435.7,286046999.3,N
1542665455.5,286047000.9,N
1542665475.3,286047000.4,N
1542665495.2,286047000.2,N
1542665515.9,286047002.6,Y
1542665535.7,286047000.4,P
1542665555.6,286047001.9,P
1542665575.4,286047002.5,N
1542665595.3,286047002.4,N
1542665615.1,286047000.2,N
1542665616.0,286047000.2,N
1542665635.8,286047002.3,N
1542665655.7,286046999.7,N
1542665675.5,286047002.6,N
1542665695.3,286047002.3,N
1542665715.2,286047000.6,N
1542665735.0,286047000.7,N
1542665735.9,286047000.7,N
1542665755.8,286046998.7,N
1542665775.6,286047000.7,N
1542665795.4,286047000.9,N
1542665815.3,286047001.1,N
1542665835.1,286046998.3,N
1542665855.8,286047000.3,N
1542665875.7,286047000.4,N
1542665895.5,286046999.8,N
1542665915.4,286047001.3,N
1542665935.2,286047003.7,Y
1542665955.0,286047001.5,P
1542665955.9,286047001.5,P
1542665975.8,286047001.4,P
1542665995.6,286047004.2,Y
1542666015.5,286047002.7,P
1542666035.3,286047002.8,P
1542666055.1,286047000.3,N
1542666075.9,286047002.3,N
1542666095.7,286047003.9,Y
1542666115.5,286047004.0,P
1542666135.4,286047004.0,P
1542666155.2,286047003.9,P
1542666175.1,286047005.5,Y
1542666176.0,286047005.5,P
1542666195.8,286047001.0,N
1542666215.6,286046998.8,N
1542666235.5,286046999.4,N
1542666255.3,286046997.1,N
1542666275.1,286046997.5,N
1542666295.9,286046997.4,N
1542666315.7,286046996.7,N
1542666335.6,286046997.1,N
1542666355.4,286046998.6,N
1542666375.2,286047000.6,N
1542666395.1,286047002.8,N
1542666396.0,286047002.8,N
1542666415.8,286047002.5,N
1542666435.7,286047001.3,N
1542666455.5,286047001.9,N
1542666475.3,286047003.7,N
1542666495.2,286047003.8,N
1542666515.9,286047002.9,N
1542666535.7,286047004.4,N
1542666555.6,286047005.7,N
1542666575.4,286047004.9,N
1542666595.2,286047004.7,N
1542666615.1,286047005.9,N
1542666616.0,286047005.9,N
1542666635.8,286047004.5,N
1542666655.7,286047006.7,N
1542666675.5,286047008.3,N
1542666695.3,286047008.9,N
1542666715.2,286047006.3,N
1542666735.0,286047007.8,N
1542666735.9,286047007.8,N
1542666755.8,286047012.4,Y
1542666775.6,286047007.4,P
1542666795.4,286047008.8,P
1542666815.3,286047010.8,P
1542666835.1,286047009.0,Y
1542666855.8,286047000.2,P
1542666875.7,286047001.0,N
1542666895.5,286047000.2,N
1542666915.4,286047000.5,N
1542666935.2,286047000.1,N
1542666955.0,286047002.1,N
1542666955.9,286047002.1,N
1542666975.8,286047004.4,N
1542666995.6,286047001.8,N
1542667015.4,286047002.2,N
1542667035.3,286047002.8,N
1542667055.1,286047002.0,N
1542667075.9,286047001.6,N
1542667095.7,286047004.3,N
1542667115.5,286047004.2,N
1542667135.4,286047003.2,N
1542667155.2,286047007.6,Y
1542667175.1,286046999.8,P
1542667176.0,286046999.8,N
1542667195.8,286047004.0,P
1542667215.6,286047002.2,N
1542667235.5,286047003.9,N
1542667255.3,286047005.8,Y
1542667275.2,286047005.7,P
1542667295.9,286047005.6,P
1542667315.7,286047005.9,P
1542667335.6,286047004.7,N
1542667355.4,286047006.8,Y
1542667375.2,286047001.6,P
1542667395.1,286047002.5,N
1542667396.0,286047002.5,N
1542667415.8,286047001.8,N
1542667435.7,286047004.4,Y
1542667455.5,286047000.8,P
1542667475.3,286047000.7,N
1542667495.2,286046998.4,N
1542667515.0,286046998.1,N
1542667515.9,286046998.1,N
1542667535.8,286047000.1,N
1542667555.6,286047001.1,N
1542667575.4,286046999.9,N
1542667595.3,286047002.7,N
1542667615.1,286047004.4,N
1542667635.8,286047004.2,N
1542667655.7,286047003.6,N
1542667675.5,286047003.9,N
1542667695.4,286047001.8,N
1542667715.2,286047005.6,N
1542667735.0,286047005.1,N
1542667735.9,286047005.1,N
1542667755.8,286047007.1,N
1542667775.6,286047006.6,N
1542667795.4,286047007.1,N
1542667815.3,286047006.3,N
1542667835.1,286047006.8,N
1542667855.9,286047007.9,N
1542667875.7,286047007.9,N
1542667895.5,286047010.3,Y
1542667915.4,286047005.2,P
1542667935.2,286047005.8,P
1542667955.1,286047006.9,P
1542667956.0,286047006.9,Y
1542667975.8,286047000.6,P
1542667995.6,286046998.3,N
1542668015.5,286047002.5,N
1542668035.3,286047001.6,N
1542668055.1,286047004.4,N
1542668075.9,286046999.8,N
1542668095.7,286047001.6,N
1542668115.6,286047002.9,N
1542668135.4,286047003.5,N
1542668155.2,286047003.8,N
1542668175.1,286047003.2,N
1542668176.0,286047003.2,N
1542668195.8,286047003.1,N
1542668215.7,286047004.4,N
1542668235.5,286047002.0,N
1542668255.3,286047003.0,N
1542668275.2,286047007.2,Y
1542668295.0,286047003.2,P
1542668295.9,286047003.2,P
1542668315.7,286047001.3,P
1542668335.6,286047003.2,Y
1542668355.4,286047006.0,P
1542668375.3,286047005.3,P
1542668395.1,286047003.1,N
